Location: Göttingen
(51.5413°N, 9.9158°E)
Time: 17:12:08
(UTC+02:00)

EO-88 - Pass Details

Date: 30 June 2022
Orbit: 453 x 461 km, 97.3° (Epoch: 14 August)

Event Time Altitude Azimuth Distance (km) Brightness Sun altitude
Exits shadow 22:53:59 - 179° (S) 1,844 ? -8.4°
Reaches altitude 10° 22:54:31 10° 181° (S) 1,626 ? -8.4°
Maximum altitude 22:57:57 54° 260° (W) 580 ? -8.7°
Drops below altitude 10° 23:01:24 10° 338° (NNW) 1,638 ? -9.0°
Sets 23:03:30 0° 344° (NNW) 2,518 ? -9.2°
